GW2996 Weather Reports


time (UTC)temp
C
wind
direction
speed
KPH
gust
KPH
rain 1hr
cm
rain 24hr
cm
rain mn
cm
humidity
%
barometer
mb
20260507155853 10 244 6.4 22.5 0.00 0.00 0.00 52 1009.1
20260507155348 10 218 3.2 12.9 0.00 0.00 0.00 57 1009.3
20260507154845 10 229 14.5 17.7 0.00 0.00 0.00 50 1009.0
20260507154343 10 241 4.8 16.1 0.00 0.00 0.00 53 1009.4
20260507153839 10 260 6.4 20.9 0.00 0.00 0.00 52 1009.3
20260507153336 9 232 19.3 25.7 0.00 0.00 0.00 52 1009.4
20260507152832 10 240 8.0 12.9 0.00 0.00 0.00 52 1009.4
20260507152328 10 163 4.8 11.3 0.00 0.00 0.00 53 1009.5
20260507151824 10 175 11.3 14.5 0.00 0.00 0.00 56 1009.4
20260507151321 8 216 14.5 25.7 0.00 0.00 0.00 53 1009.5
20260507150818 10 213 11.3 22.5 0.00 0.00 0.00 58 1009.5
20260507150314 8 256 3.2 24.1 0.00 0.00 0.00 59 1009.3
20260507145810 8 225 19.3 24.1 0.00 0.00 0.00 55 1009.4
20260507145307 8 244 16.1 24.1 0.00 0.00 0.00 55 1009.5
20260507144804 8 239 11.3 25.7 0.00 0.00 0.00 58 1009.5
20260507144301 9 192 22.5 24.1 0.00 0.00 0.00 58 1009.3
20260507143758 8 230 9.7 11.3 0.00 0.00 0.00 60 1009.4
20260507143255 9 238 9.7 24.1 0.00 0.00 0.00 57 1009.5
20260507142752 9 220 11.3 17.7 0.00 0.00 0.00 55 1009.5
20260507142248 8 246 9.7 19.3 0.00 0.00 0.00 59 1009.5
20260507141744 8 302 8.0 17.7 0.00 0.00 0.00 63 1009.5
20260507141241 8 231 6.4 8.0 0.00 0.00 0.00 64 1009.3
20260507140737 8 206 11.3 17.7 0.00 0.00 0.00 60 1009.7
20260507140235 7 233 9.7 17.7 0.00 0.00 0.00 64 1009.6
20260507135732 8 198 22.5 24.1 0.00 0.00 0.00 59 1009.6
20260507135229 8 215 6.4 6.4 0.00 0.00 0.00 66 1009.7
20260507134725 8 233 8.0 19.3 0.00 0.00 0.00 62 1009.6
20260507134222 8 229 4.8 16.1 0.00 0.00 0.00 64 1009.3
20260507133718 8 215 11.3 19.3 0.00 0.00 0.00 64 1009.6
20260507133215 8 224 6.4 9.7 0.00 0.00 0.00 67 1009.4
20260507132712 9 211 4.8 6.4 0.00 0.00 0.00 68 1009.4
20260507132208 7 228 9.7 19.3 0.00 0.00 0.00 67 1009.6
20260507131705 8 214 11.3 14.5 0.00 0.00 0.00 66 1009.3
20260507131203 8 189 6.4 9.7 0.00 0.00 0.00 68 1009.4
20260507130659 8 220 8.0 11.3 0.00 0.00 0.00 68 1009.4
20260507130157 7 248 9.7 16.1 0.00 0.00 0.00 67 1009.4
20260507125656 7 226 8.0 19.3 0.00 0.00 0.00 70 1009.3
20260507125153 8 202 6.4 8.0 0.00 0.00 0.00 71 1009.5
20260507124649 7 185 4.8 16.1 0.00 0.00 0.00 72 1009.1
20260507124147 7 221 12.9 14.5 0.00 0.00 0.00 71 1009.4
20260507123645 7 222 6.4 12.9 0.00 0.00 0.00 76 1009.5
20260507123142 7 212 3.2 6.4 0.00 0.00 0.00 77 1009.4
20260507122637 7 216 6.4 6.4 0.00 0.00 0.00 78 1009.4
20260507122133 7 168 4.8 6.4 0.00 0.00 0.00 78 1009.3
20260507121630 6 210 3.2 8.0 0.00 0.00 0.00 80 1009.3
20260507121126 6 219 11.3 11.3 0.00 0.00 0.00 81 1009.1
20260507120622 7 180 4.8 4.8 0.00 0.00 0.00 82 1009.1
20260507120119 6 200 4.8 8.0 0.00 0.00 0.00 82 1009.1
20260507115615 6 221 8.0 8.0 0.00 0.00 0.00 82 1009.1
20260507115110 6 175 4.8 8.0 0.00 0.00 0.00 84 1008.9
20260507114606 6 240 1.6 4.8 0.00 0.00 0.00 87 1009.0
20260507114104 6 183 0.0 1.6 0.00 0.00 0.00 86 1009.0
20260507113600 6 180 3.2 4.8 0.00 0.00 0.00 86 1008.9
20260507113058 6 127 1.6 3.2 0.00 0.00 0.00 87 1008.9
20260507112556 6 142 1.6 4.8 0.00 0.00 0.00 87 1008.9
20260507112052 6 44 0.0 1.6 0.00 0.00 0.00 88 1009.1
20260507111549 6 142 0.0 0.0 0.00 0.00 0.00 88 1009.0
20260507111046 6 224 0.0 0.0 0.00 0.00 0.00 88 1008.9
20260507110542 6 185 0.0 0.0 0.00 0.00 0.00 88 1008.8
20260507110039 6 185 0.0 0.0 0.00 0.00 0.00 88 1008.8
20260507105536 5 283 0.0 0.0 0.00 0.00 0.00 88 1009.0
20260507105032 5 283 0.0 0.0 0.00 0.00 0.00 88 1008.8
20260507104529 5 283 0.0 0.0 0.00 0.00 0.00 88 1008.8
20260507104026 5 283 0.0 0.0 0.00 0.00 0.00 88 1008.9
20260507103522 5 283 0.0 0.0 0.00 0.00 0.00 88 1009.0
20260507103019 5 283 0.0 0.0 0.00 0.00 0.00 88 1008.9
20260507102515 5 283 0.0 0.0 0.00 0.00 0.00 88 1009.0
20260507102011 5 283 0.0 0.0 0.00 0.00 0.00 88 1008.7
20260507101507 5 240 0.0 3.2 0.00 0.00 0.00 88 1008.6
20260507101005 5 104 0.0 1.6 0.00 0.00 0.00 88 1008.9
20260507100502 5 171 0.0 3.2 0.00 0.00 0.00 88 1008.5
20260507100000 5 228 3.2 3.2 0.00 0.00 0.00 88 1008.7
20260507095457 5 163 3.2 3.2 0.00 0.00 0.00 89 1008.7
20260507094948 5 231 0.0 4.8 0.00 0.00 0.00 90 1008.8
20260507094444 5 157 0.0 0.0 0.00 0.00 0.00 90 1008.8
20260507093941 5 217 0.0 0.0 0.00 0.00 0.00 91 1008.7
20260507093439 5 217 0.0 0.0 0.00 0.00 0.00 91 1008.7
20260507092937 5 217 0.0 0.0 0.00 0.00 0.00 91 1008.6
20260507092433 5 217 0.0 0.0 0.00 0.00 0.00 91 1008.7
20260507091930 5 94 0.0 1.6 0.00 0.00 0.00 91 1008.5
20260507091427 5 193 0.0 1.6 0.00 0.00 0.00 91 1008.3
20260507090922 5 113 0.0 3.2 0.00 0.00 0.00 91 1008.6
20260507090418 5 174 0.0 0.0 0.00 0.00 0.00 91 1008.5
20260507085915 5 257 0.0 0.0 0.00 0.00 0.00 91 1008.5
20260507085412 5 116 0.0 0.0 0.00 0.00 0.00 91 1008.5
20260507084909 5 193 4.8 6.4 0.00 0.00 0.00 91 1008.4
20260507084406 5 135 0.0 3.2 0.00 0.00 0.00 91 1008.4
20260507083903 5 135 1.6 3.2 0.00 0.00 0.00 91 1008.6
20260507083359 5 25 0.0 0.0 0.00 0.00 0.00 91 1008.8
20260507082855 5 185 1.6 3.2 0.00 0.00 0.00 91 1008.5
20260507082351 5 178 3.2 3.2 0.00 0.00 0.00 91 1008.9
20260507081849 5 104 1.6 3.2 0.00 0.00 0.00 91 1008.9
20260507081344 5 119 0.0 1.6 0.00 0.00 0.00 91 1009.1
20260507080841 5 168 0.0 1.6 0.00 0.00 0.00 91 1009.0
20260507080337 4 110 0.0 1.6 0.00 0.00 0.00 91 1008.9
20260507075833 4 55 0.0 0.0 0.00 0.00 0.00 91 1009.0
20260507075329 4 47 1.6 3.2 0.00 0.00 0.00 91 1009.1
20260507074826 4 64 1.6 3.2 0.00 0.00 0.00 91 1009.1
20260507074323 4 154 0.0 3.2 0.00 0.00 0.00 91 1009.3
20260507073820 3 35 1.6 1.6 0.00 0.00 0.00 91 1009.4
20260507073318 3 38 0.0 0.0 0.00 0.00 0.00 91 1009.5
20260507072815 3 345 0.0 0.0 0.00 0.00 0.00 91 1009.3
20260507072312 3 13 0.0 1.6 0.00 0.00 0.00 91 1009.0
20260507071809 4 32 0.0 1.6 0.00 0.00 0.00 91 1008.9
20260507071305 4 33 1.6 3.2 0.00 0.00 0.00 91 1008.8
20260507070802 4 22 1.6 1.6 0.00 0.00 0.00 91 1008.8
20260507070259 4 26 0.0 1.6 0.00 0.00 0.00 91 1008.7
20260507065756 4 22 0.0 1.6 0.00 0.00 0.00 91 1008.7
20260507065253 4 14 3.2 3.2 0.00 0.00 0.00 91 1008.7
20260507064750 5 19 0.0 1.6 0.00 0.00 0.00 91 1008.6
20260507064249 4 19 1.6 3.2 0.00 0.00 0.00 91 1008.8
20260507063746 5 49 1.6 3.2 0.00 0.00 0.00 91 1008.9
20260507063242 4 51 3.2 3.2 0.00 0.00 0.00 91 1008.8
20260507062740 4 31 0.0 1.6 0.00 0.00 0.00 91 1008.9
20260507062237 4 304 0.0 0.0 0.00 0.00 0.00 91 1008.9
20260507061735 4 304 0.0 0.0 0.00 0.00 0.00 91 1008.9
20260507061232 4 326 0.0 0.0 0.00 0.00 0.00 91 1008.8
20260507060730 4 13 0.0 0.0 0.00 0.00 0.00 91 1008.9
20260507060227 4 13 0.0 0.0 0.00 0.00 0.00 91 1008.7
20260507055723 5 26 3.2 3.2 0.00 0.00 0.00 91 1008.9
20260507055218 5 26 3.2 3.2 0.00 0.00 0.00 91 1008.9
20260507054715 5 4 1.6 1.6 0.00 0.00 0.00 91 1009.0
20260507054212 5 4 1.6 1.6 0.00 0.00 0.00 91 1009.4
20260507053709 5 130 0.0 0.0 0.00 0.00 0.00 91 1009.4
20260507053207 5 130 0.0 0.0 0.00 0.00 0.00 91 1009.4
20260507052706 5 135 0.0 0.0 0.00 0.00 0.00 91 1009.3
20260507052201 5 55 0.0 0.0 0.00 0.00 0.00 91 1009.4
20260507051659 5 22 0.0 0.0 0.00 0.00 0.00 91 1009.5
20260507051155 5 30 0.0 0.0 0.00 0.00 0.00 91 1009.5
20260507050652 5 66 0.0 0.0 0.00 0.00 0.00 91 1009.8
20260507050149 5 22 0.0 0.0 0.00 0.00 0.00 91 1009.8
20260507045646 5 22 0.0 0.0 0.00 0.00 0.00 91 1009.8
20260507045143 5 22 0.0 0.0 0.00 0.00 0.00 91 1009.7
20260507044640 5 49 0.0 0.0 0.00 0.00 0.00 91 1009.8
20260507044137 5 49 0.0 0.0 0.00 0.00 0.00 91 1010.1
20260507043633 5 49 0.0 0.0 0.00 0.00 0.00 91 1010.0
20260507043130 5 49 0.0 0.0 0.00 0.00 0.00 91 1010.1
20260507042626 5 55 0.0 0.0 0.00 0.00 0.00 91 1010.3
20260507042121 5 19 0.0 0.0 0.00 0.00 0.00 91 1010.1
20260507041618 5 19 0.0 0.0 0.00 0.00 0.00 91 1010.1
20260507041115 5 19 0.0 0.0 0.00 0.00 0.00 91 1010.4
20260507040612 5 19 0.0 0.0 0.00 0.00 0.00 91 1010.2
20260507040108 5 19 0.0 0.0 0.00 1.75 1.75 91 1010.1
20260507035604 5 19 0.0 0.0 0.00 1.75 1.75 91 1010.1
20260507035100 5 11 3.2 3.2 0.00 1.75 1.75 90 1010.0
20260507034557 6 25 1.6 1.6 0.00 1.75 1.75 90 1010.1
20260507034055 6 25 1.6 1.6 0.00 1.75 1.75 90 1010.3
20260507033553 6 25 1.6 1.6 0.00 1.75 1.75 90 1010.2
20260507033050 6 25 1.6 1.6 0.00 1.75 1.75 90 1010.2
20260507032547 6 22 0.0 0.0 0.00 1.75 1.75 90 1010.1
20260507032043 6 22 0.0 0.0 0.00 1.75 1.75 90 1010.3
20260507031540 6 55 0.0 0.0 0.00 1.75 1.75 90 1010.3
20260507031037 6 55 0.0 0.0 0.00 1.75 1.75 90 1010.0
20260507030534 6 55 0.0 1.6 0.00 1.75 1.75 90 1010.2
20260507030032 6 93 0.0 1.6 0.00 1.75 1.75 90 1010.0
20260507025528 6 102 1.6 3.2 0.00 1.75 1.75 90 1010.1
20260507025026 6 60 0.0 0.0 0.00 1.75 1.75 90 1010.4
20260507024523 6 66 0.0 0.0 0.00 1.75 1.75 90 1010.5
20260507024020 6 44 0.0 0.0 0.00 1.75 1.75 90 1010.4
20260507023516 6 44 0.0 0.0 0.00 1.75 1.75 90 1010.4
20260507023014 6 44 0.0 0.0 0.00 1.75 1.75 90 1010.3
20260507022510 6 212 0.0 0.0 0.00 1.75 1.75 90 1010.4
20260507022000 6 212 0.0 0.0 0.00 1.75 1.75 90 1010.4
20260507021456 6 212 0.0 0.0 0.00 1.75 1.75 90 1010.3
20260507020953 6 212 0.0 0.0 0.00 1.75 1.75 90 1010.2
20260507020450 6 212 0.0 0.0 0.00 1.75 1.75 90 1009.9
20260507015947 6 212 0.0 0.0 0.00 1.75 1.75 90 1009.9
20260507015446 6 212 0.0 0.0 0.00 1.75 1.75 90 1010.0
20260507014942 6 212 0.0 0.0 0.00 1.75 1.75 90 1010.1
20260507014439 6 212 0.0 0.0 0.00 1.75 1.75 90 1010.4
20260507013935 6 212 0.0 0.0 0.00 1.75 1.75 90 1010.4
20260507013432 6 32 0.0 1.6 0.00 1.75 1.75 90 1010.8
20260507012929 6 32 0.0 1.6 0.00 1.75 1.75 90 1010.7
20260507012426 6 32 0.0 1.6 0.00 1.75 1.75 90 1010.6
20260507011922 6 32 0.0 1.6 0.00 1.75 1.75 90 1010.2
20260507011419 6 69 0.0 0.0 0.00 1.75 1.75 90 1010.5
20260507010914 6 69 0.0 0.0 0.00 1.75 1.75 90 1010.2
20260507010409 6 119 0.0 0.0 0.00 1.75 1.75 90 1010.1
20260507005907 6 32 0.0 0.0 0.00 1.75 1.75 89 1010.1
20260507005403 6 32 0.0 0.0 0.00 1.75 1.75 89 1009.7
20260507004900 6 32 0.0 0.0 0.00 1.75 1.75 89 1009.8
20260507004357 6 32 0.0 0.0 0.00 1.75 1.75 89 1009.9
20260507003854 6 53 1.6 3.2 0.00 1.75 1.75 89 1009.7
20260507003350 6 147 0.0 0.0 0.00 1.75 1.75 89 1009.9
20260507002845 6 38 0.0 0.0 0.00 1.75 1.75 89 1009.9
20260507002341 6 38 0.0 0.0 0.00 1.75 1.75 89 1009.8
20260507001839 6 203 0.0 0.0 0.00 1.75 1.75 89 1009.4
20260507001335 6 203 0.0 0.0 0.00 1.75 1.75 89 1009.4
20260507000832 6 14 0.0 0.0 0.00 1.75 1.75 89 1009.5
20260507000328 6 38 0.0 0.0 0.00 1.75 1.75 89 1009.5
20260506235824 7 0 0.0 0.0 0.00 1.75 1.75 88 1009.1
20260506235320 6 0 0.0 1.6 0.00 1.75 1.75 88 1009.3
20260506234817 7 29 0.0 0.0 0.00 1.75 1.75 88 1009.1
20260506234315 7 76 0.0 0.0 0.00 1.75 1.75 88 1008.9
20260506233812 7 32 0.0 0.0 0.00 1.75 1.75 88 1008.9
20260506233308 7 32 0.0 0.0 0.00 1.75 1.75 88 1009.1
20260506232805 7 44 0.0 0.0 0.00 1.75 1.75 87 1008.7
20260506232300 7 44 0.0 0.0 0.00 1.75 1.75 87 1008.6
20260506231757 7 44 0.0 0.0 0.00 1.75 1.75 87 1008.6
20260506231255 7 44 0.0 0.0 0.00 1.75 1.75 87 1008.6
20260506230752 7 228 0.0 0.0 0.00 1.75 1.75 86 1009.0
20260506230248 7 49 0.0 0.0 0.00 1.75 1.75 87 1008.8
20260506225745 7 124 0.0 0.0 0.00 1.75 1.75 87 1008.8
20260506225242 7 66 0.0 1.6 0.00 1.75 1.75 88 1008.7
20260506224738 7 173 0.0 1.6 0.00 1.75 1.75 88 1009.3
20260506224236 7 353 0.0 0.0 0.00 1.75 1.75 88 1009.0
20260506223732 7 236 3.2 3.2 0.00 1.75 1.75 88 1009.1
20260506223227 7 14 0.0 1.6 0.00 1.75 1.75 88 1009.0
20260506222725 7 256 0.0 0.0 0.00 1.75 1.75 88 1009.4
20260506222220 7 209 0.0 0.0 0.00 1.75 1.75 88 1008.8
20260506221718 7 350 1.6 3.2 0.00 1.75 1.75 88 1009.1
20260506221216 7 22 0.0 1.6 0.00 1.75 1.75 88 1009.1
20260506220713 7 32 0.0 3.2 0.00 1.75 1.75 88 1008.9
20260506220208 7 7 3.2 3.2 0.00 1.75 1.75 87 1008.8
20260506215705 7 299 0.0 4.8 0.00 1.75 1.75 88 1009.0
20260506215200 7 327 0.0 4.8 0.00 1.75 1.75 88 1009.1
20260506214657 7 54 0.0 4.8 0.00 1.75 1.75 88 1008.9
20260506214154 7 1 3.2 3.2 0.00 1.75 1.75 88 1009.0
20260506213653 7 113 0.0 3.2 0.00 1.75 1.75 88 1009.1
20260506213150 7 10 4.8 6.4 0.00 1.75 1.75 88 1008.7
20260506212647 7 344 3.2 4.8 0.00 1.75 1.75 88 1008.9
20260506212142 7 47 3.2 4.8 0.05 1.75 1.75 88 1008.9
20260506211638 7 0 4.8 4.8 0.05 1.75 1.75 88 1009.0
20260506211134 7 40 1.6 3.2 0.00 1.75 1.75 88 1009.1
20260506210631 7 326 0.0 3.2 0.00 1.75 1.75 88 1009.0
20260506210128 7 320 0.0 4.8 0.00 1.75 1.75 88 1009.1
20260506205625 7 44 0.0 3.2 0.00 1.75 1.75 88 1009.1
20260506205119 7 315 1.6 3.2 0.05 1.75 1.75 88 1009.1
20260506204618 7 176 0.0 3.2 0.05 1.75 1.75 88 1009.1
20260506204115 7 5 1.6 4.8 0.00 1.73 1.73 88 1009.0
20260506203613 7 261 1.6 4.8 0.00 1.73 1.73 88 1008.8
20260506203109 7 1 3.2 6.4 0.05 1.73 1.73 88 1008.7
20260506202607 7 341 1.6 3.2 0.05 1.73 1.73 88 1008.8
20260506202103 7 13 1.6 3.2 0.05 1.73 1.73 88 1008.8
20260506201601 7 22 1.6 8.0 0.05 1.70 1.70 88 1009.1
20260506201057 7 342 3.2 6.4 0.05 1.70 1.70 87 1008.7
20260506200554 7 342 6.4 11.3 0.00 1.70 1.70 87 1008.9
20260506200050 7 8 0.0 3.2 0.00 1.70 1.70 87 1008.6
20260506195547 7 335 1.6 3.2 0.00 1.70 1.70 86 1008.9
20260506195043 7 343 3.2 6.4 0.00 1.70 1.70 87 1008.6
20260506194541 7 21 3.2 4.8 0.05 1.70 1.70 87 1008.8
20260506194037 7 0 3.2 6.4 0.05 1.70 1.70 87 1008.6
20260506193535 7 265 3.2 8.0 0.00 1.70 1.70 87 1008.7
20260506193032 7 351 1.6 8.0 0.00 1.70 1.70 87 1008.7
20260506192529 7 16 3.2 8.0 0.00 1.70 1.70 87 1008.6
20260506192024 7 265 1.6 4.8 0.00 1.70 1.70 87 1008.6
20260506191521 7 354 6.4 6.4 0.00 1.70 1.70 86 1008.5
20260506191017 7 0 4.8 4.8 0.00 1.70 1.70 87 1008.8
20260506190515 7 15 4.8 4.8 0.00 1.70 1.70 88 1008.7
20260506190012 7 3 3.2 4.8 0.00 1.70 1.70 87 1008.8
20260506185509 7 3 4.8 4.8 0.00 1.70 1.70 87 1008.9
20260506185005 7 0 0.0 4.8 0.00 1.70 1.70 88 1008.9
20260506184503 7 352 4.8 4.8 0.00 1.70 1.70 87 1008.8
20260506183954 7 322 3.2 4.8 0.00 1.70 1.70 88 1009.1
20260506183449 7 265 3.2 3.2 0.00 1.70 1.70 88 1009.0
20260506182946 7 343 3.2 4.8 0.05 1.70 1.70 88 1009.0
20260506182444 7 14 0.0 6.4 0.05 1.70 1.70 88 1009.1
20260506181941 7 354 1.6 3.2 0.00 1.68 1.68 88 1009.4
20260506181439 7 349 1.6 6.4 0.00 1.68 1.68 88 1009.1
20260506180930 6 335 1.6 6.4 0.00 1.68 1.68 87 1009.4
20260506180426 7 173 0.0 4.8 0.05 1.68 1.68 88 1009.5
20260506175923 7 23 3.2 4.8 0.00 1.68 1.68 88 1009.6
20260506175420 6 311 0.0 4.8 0.05 1.68 1.68 88 1009.7
20260506174917 7 45 1.6 3.2 0.13 1.68 1.68 88 1009.8
20260506174414 7 62 1.6 6.4 0.13 1.65 1.65 88 1009.8
20260506173912 7 7 4.8 4.8 0.05 1.65 1.65 88 1009.6
20260506173408 7 224 0.0 3.2 0.05 1.65 1.65 88 1009.8
20260506172906 6 347 1.6 4.8 0.05 1.65 1.65 88 1009.7
20260506172402 6 2 4.8 6.4 0.05 1.63 1.63 88 1009.5
20260506171859 7 10 6.4 8.0 0.05 1.63 1.63 88 1009.7
20260506171356 6 1 0.0 4.8 0.13 1.63 1.63 88 1009.6
20260506170853 6 17 3.2 4.8 0.13 1.60 1.60 89 1010.0
20260506170349 6 12 3.2 3.2 0.18 1.60 1.60 89 1010.0
20260506165844 6 16 3.2 6.4 0.18 1.57 1.57 89 1010.1
20260506165341 6 352 4.8 4.8 0.18 1.55 1.55 89 1010.2
20260506164837 6 355 3.2 6.4 0.18 1.52 1.52 89 1010.1
20260506164334 6 336 1.6 4.8 0.18 1.50 1.50 89 1010.1
20260506163832 6 15 3.2 6.4 0.18 1.50 1.50 89 1009.9
20260506163326 6 1 1.6 4.8 0.23 1.47 1.47 89 1010.1
20260506162821 6 37 3.2 6.4 0.23 1.45 1.45 89 1009.9
20260506162319 6 346 4.8 8.0 0.30 1.45 1.45 89 1010.3
20260506161816 6 331 6.4 8.0 0.18 1.42 1.42 89 1010.2
20260506161314 6 3 6.4 6.4 0.18 1.40 1.40 89 1010.4
20260506160812 6 14 3.2 4.8 0.18 1.37 1.37 89 1010.3
20260506160308 6 346 6.4 6.4 0.18 1.35 1.35 89 1010.6